AirNav   TITAN Aviation Fuels
 
 1525 users online  

4K6 Bloomfield Municipal Airport
Bloomfield, Iowa, USA

GOING TO BLOOMFIELD?


FAA INFORMATION EFFECTIVE 17 JUNE 2021

Location

FAA Identifier: 4K6
Lat/Long: 40-43-55.5800N 092-25-41.7680W
40-43.926333N 092-25.696133W
40.7321056,-92.4282689
(estimated)
Elevation: 888 ft. / 270.7 m (surveyed)
Variation: 02E (2000)
From city: 2 miles SW of BLOOMFIELD, IA
Time zone: UTC -5 (UTC -6 during Standard Time)
Zip code: 52537

Airport Operations

Airport use: Open to the public
Activation date: 09/1961
Control tower: no
ARTCC: CHICAGO CENTER
FSS: FORT DODGE FLIGHT SERVICE STATION
NOTAMs facility: FOD (NOTAM-D service available)
Attendance: MON-FRI 0830-1730, ALL SAT 0900-1200
Wind indicator: lighted
Segmented circle: no
Lights: ACTVT MIRL RY 18/36 - CTAF.
Beacon: white-green (lighted land airport)
Operates sunset to sunrise.

Airport Communications

CTAF/UNICOM: 122.8
  • APCH/DEP SVC PRVDD BY CHICAGO ARTCC ON FREQS 118.15/335.575 (OTTUMWA RCAG).

Nearby radio navigation aids

VOR radial/distance  VOR name  Freq  Var
OTMr189/18.4OTTUMWA VOR/DME111.6006E
IRKr006/36.6KIRKSVILLE VORTAC114.6006E

 
NDB name  Hdg/Dist  Freq  Var  ID
BLOOMFIELDat field26902EBEX -... . -..-

Airport Services

Fuel available: 100LL
Parking: hangars and tiedowns
Airframe service: MAJOR
Powerplant service: MAJOR
Bottled oxygen: NONE
Bulk oxygen: NONE

Runway Information

Runway 18/36

Dimensions: 3401 x 60 ft. / 1037 x 18 m
Surface: concrete, in good condition
Weight bearing capacity: 
Single wheel: 28.0
Double wheel: 20.0
Runway edge lights: medium intensity
RUNWAY 18  RUNWAY 36
Latitude: 40-44.205800N40-43.645733N
Longitude: 092-25.700167W092-25.693200W
Elevation: 883.0 ft.888.0 ft.
Traffic pattern: leftleft
Runway heading: 177 magnetic, 179 true357 magnetic, 359 true
Markings: nonprecision, in fair conditionnonprecision, in fair condition
Visual slope indicator: 2-light PAPI on left (3.00 degrees glide path)2-light PAPI on left (3.00 degrees glide path)
Touchdown point: yes, no lightsyes, no lights
Obstructions: 55 ft. tree, 804 ft. from runway, 183 ft. right of centerline, 10:1 slope to clear15 ft. road, 600 ft. from runway, 26:1 slope to clear

Airport Ownership and Management from official FAA records

Ownership: Publicly-owned
Owner: CITY OF BLOOMFIELD
111 W FRANKLIN ST
BLOOMFIELD, IA 52537
Phone 641-664-2260
Manager: CHARLES A. SPARGUR
MUNI ARPT 20956 230TH ST
BLOOMFIELD, IA 52537
Phone 641-664-1255
TONY

Airport Operational Statistics

Aircraft based on the field: 10
Single engine airplanes: 10
    
Aircraft operations: avg 43/week *
57% transient general aviation
43% local general aviation
* for 12-month period ending 13 October 2020

Additional Remarks

FOR SVC AFTER HRS CALL 641-208-6709.
FOR CD CTC CHICAGO ARTCC AT 630-906-8921.

Instrument Procedures

NOTE: All procedures below are presented as PDF files. If you need a reader for these files, you should download the free Adobe Reader.

NOT FOR NAVIGATION. Please procure official charts for flight.
FAA instrument procedures published for use from 17 June 2021 at 0901Z to 15 July 2021 at 0900Z.

 
IAPs - Instrument Approach Procedures
RNAV (GPS) RWY 36 **CHANGED**   download (175KB)
NDB RWY 36 **CHANGED**   download (167KB)
NOTE: Special Take-Off Minimums/Departure Procedures apply   download (158KB)

Other nearby airports with instrument procedures:

03D - Memphis Memorial Airport (19 nm SE)
KTVK - Centerville Municipal Airport (22 nm W)
4C8 - Albia Municipal Airport (22 nm NW)
KOTM - Ottumwa Regional Airport (23 nm N)
KFFL - Fairfield Municipal Airport (28 nm NE)
 
Loc | Ops | Rwys | IFR | FBO | Links
Com | Nav | Svcs | Stats | Notes
Area around 4K6 (Bloomfield Municipal Airport)
 
Road maps at: MapQuest Bing Google
 
Aerial photo
No photo
 
Sectional chart

 
Airport distance calculator
Flying to Bloomfield Municipal Airport? Find the distance to fly.

From to 4K6

Sunrise and sunset
Times for 24-Jun-2021
 Local
(UTC-5)
 Zulu
(UTC)
Morning civil twilight05:0710:07
Sunrise05:4010:40
Sunset20:4401:44
Evening civil twilight21:1702:17

Current date and time
Zulu (UTC)  24-Jun-2021 15:19:03
Local (UTC-5)  24-Jun-2021 10:19:03
 
METAR
KTVK 
22nm W 
241435Z AUTO 4SM -RA FEW002 FEW036 SCT045 20/20 A2990 RMK AO2 P0009
KOTM 
22nm N 
241453Z AUTO 17012G19KT 10SM CLR 21/21 A2984 RMK AO2 SLP099 60031 T02110206 55035
KFFL 
28nm NE 
241455Z AUTO 20016G26KT 9SM CLR 21/21 A2988 RMK A01 P0001
KOOA 
30nm N 
241455Z AUTO 18012G16KT 10SM +RA CLR 22/21 A2984 RMK AO2 60024 T02210206
KIRK 
38nm S 
241455Z AUTO 29010KT 3SM -RA BR FEW006 BKN100 OVC120 21/19 A3000 RMK AO2 LTG DSNT ALQDS SLP154 P0008 60014 T02060194 50015
TAF
KOTM 
22nm N 
241128Z 2412/2512 19011KT P6SM VCTS BKN040CB FM241300 17009KT 5SM -TSRA BR BKN040CB FM241700 17010KT P6SM BKN080 FM250300 15009KT 6SM -TSRA BR BKN040CB FM250800 22007KT 5SM -TSRA OVC010CB
NOTAMs
Click for the latest NOTAMs
NOTAMs are issued by the DoD/FAA and will open in a separate window not controlled by AirNav.

 

 
 

FBO, Fuel Providers, and Aircraft Ground Support

  
 Business Name 
 
 Contact 
 
 Services / Description 
 
Fuel Prices
 
Comments
  
Heartland Aviation 641-664-1255
no information available

If you are affiliated with Heartland Aviation and would like to show here your services, contact info, web link, logo, and more, click here
100LL
FS $5.25 
 Updated 27-May-2021
 
   write
FS=Full service
Update Fuel Prices
 

Would you like to see your business listed on this page?

 If your business provides an interesting product or service to pilots, flight crews, aircraft, or users of the Bloomfield Municipal Airport, you should consider listing it here.  To start the listing process, click on the button below
 
Add a business
 

Other Pages about Bloomfield Municipal Airport

Page from the Iowa Airport Directory
 
Update a link
 
Copyright © AirNav, LLC. All rights reserved. Privacy Policy  Contact